TimeCDT,TemperatureF,Dew PointF,Humidity,Sea Level PressureIn,VisibilityMPH,Wind Direction,Wind SpeedMPH,Gust SpeedMPH,PrecipitationIn,Events,Conditions,WindDirDegrees,DateUTC
12:15 AM,75.2,65.3,71,29.97,10.0,South,9.2,-,N/A,,Clear,190,2013-08-20 05:15:00
12:35 AM,74.3,65.1,73,29.98,10.0,South,8.1,-,N/A,,Clear,190,2013-08-20 05:35:00
12:55 AM,73.2,64.6,74,29.98,10.0,South,6.9,-,N/A,,Clear,190,2013-08-20 05:55:00
1:15 AM,73.4,64.4,73,29.97,10.0,South,8.1,-,N/A,,Clear,190,2013-08-20 06:15:00
1:35 AM,73.2,64.0,73,29.97,10.0,SSW,8.1,-,N/A,,Clear,200,2013-08-20 06:35:00
1:55 AM,72.5,64.0,75,29.97,10.0,SSW,5.8,-,N/A,,Clear,200,2013-08-20 06:55:00
2:15 AM,71.8,63.9,76,29.97,10.0,South,4.6,-,N/A,,Clear,190,2013-08-20 07:15:00
2:35 AM,72.0,63.9,76,29.96,10.0,South,4.6,-,N/A,,Clear,180,2013-08-20 07:35:00
2:55 AM,72.5,63.7,74,29.96,10.0,South,6.9,-,N/A,,Clear,190,2013-08-20 07:55:00
3:15 AM,72.0,63.7,75,29.96,10.0,SSW,5.8,-,N/A,,Clear,200,2013-08-20 08:15:00
3:35 AM,71.6,63.7,76,29.95,10.0,South,5.8,-,N/A,,Clear,190,2013-08-20 08:35:00
3:55 AM,71.6,63.7,76,29.95,10.0,South,6.9,-,N/A,,Clear,190,2013-08-20 08:55:00
4:15 AM,71.1,63.5,77,29.95,10.0,South,4.6,-,N/A,,Clear,190,2013-08-20 09:15:00
4:35 AM,70.7,63.5,78,29.95,10.0,SSW,5.8,-,N/A,,Clear,200,2013-08-20 09:35:00
4:55 AM,70.2,63.5,79,29.95,10.0,SSW,4.6,-,N/A,,Clear,200,2013-08-20 09:55:00
5:15 AM,69.8,63.5,80,29.95,10.0,Calm,Calm,-,N/A,,Clear,0,2013-08-20 10:15:00
5:35 AM,69.3,63.5,82,29.95,10.0,South,4.6,-,N/A,,Clear,170,2013-08-20 10:35:00
5:55 AM,68.7,63.5,83,29.95,10.0,South,3.5,-,N/A,,Clear,170,2013-08-20 10:55:00
6:15 AM,68.7,63.5,83,29.95,10.0,South,3.5,-,N/A,,Clear,180,2013-08-20 11:15:00
6:35 AM,68.0,63.1,84,29.95,10.0,Calm,Calm,-,N/A,,Clear,0,2013-08-20 11:35:00
6:55 AM,67.5,62.8,85,29.96,7.0,South,3.5,-,N/A,,Clear,190,2013-08-20 11:55:00
7:15 AM,67.3,62.8,85,29.96,7.0,SSW,5.8,-,N/A,,Clear,200,2013-08-20 12:15:00
7:35 AM,68.0,63.0,84,29.96,7.0,SSW,5.8,-,N/A,,Clear,200,2013-08-20 12:35:00
7:55 AM,69.1,63.5,82,29.96,10.0,Calm,Calm,-,N/A,,Clear,0,2013-08-20 12:55:00
8:15 AM,70.7,63.5,78,29.96,10.0,South,3.5,-,N/A,,Clear,190,2013-08-20 13:15:00
8:35 AM,71.1,63.5,77,29.96,10.0,Calm,Calm,-,N/A,,Clear,0,2013-08-20 13:35:00
8:55 AM,71.6,63.9,76,29.96,10.0,SSW,3.5,-,N/A,,Clear,210,2013-08-20 13:55:00
9:15 AM,73.9,63.9,71,29.96,10.0,SSW,6.9,-,N/A,,Clear,210,2013-08-20 14:15:00
9:35 AM,76.1,63.7,65,29.96,10.0,SSW,10.4,-,N/A,,Clear,210,2013-08-20 14:35:00
9:55 AM,77.9,64.2,63,29.96,10.0,SSW,11.5,-,N/A,,Clear,210,2013-08-20 14:55:00
10:15 AM,79.2,63.5,59,29.96,10.0,SSW,11.5,-,N/A,,Clear,210,2013-08-20 15:15:00
10:35 AM,80.6,64.0,57,29.96,10.0,SSW,12.7,-,N/A,,Clear,210,2013-08-20 15:35:00
10:55 AM,83.3,64.6,53,29.96,10.0,South,10.4,-,N/A,,Clear,190,2013-08-20 15:55:00
11:15 AM,84.7,64.8,51,29.96,10.0,SSW,9.2,16.1,N/A,,Clear,200,2013-08-20 16:15:00
11:35 AM,86.0,66.0,51,29.96,10.0,South,11.5,-,N/A,,Clear,190,2013-08-20 16:35:00
11:55 AM,86.7,65.8,50,29.96,10.0,South,10.4,-,N/A,,Clear,180,2013-08-20 16:55:00
12:15 PM,87.8,65.3,47,29.95,10.0,South,10.4,-,N/A,,Clear,180,2013-08-20 17:15:00
12:35 PM,89.1,64.2,44,29.95,10.0,South,12.7,-,N/A,,Clear,170,2013-08-20 17:35:00
12:55 PM,89.8,62.8,40,29.95,10.0,South,16.1,-,N/A,,Clear,180,2013-08-20 17:55:00
1:15 PM,90.7,62.1,38,29.94,10.0,South,16.1,23.0,N/A,,Clear,190,2013-08-20 18:15:00
1:35 PM,91.0,60.6,36,29.94,10.0,South,15.0,-,N/A,,Clear,180,2013-08-20 18:35:00
1:55 PM,92.1,59.7,34,29.93,10.0,SSW,18.4,-,N/A,,Clear,200,2013-08-20 18:55:00
2:15 PM,92.1,61.2,35,29.93,10.0,SSW,17.3,25.3,N/A,,Clear,200,2013-08-20 19:15:00
2:35 PM,92.3,60.6,35,29.92,10.0,SSW,17.3,21.9,N/A,,Clear,200,2013-08-20 19:35:00
2:55 PM,93.0,61.7,35,29.92,10.0,South,17.3,20.7,N/A,,Clear,180,2013-08-20 19:55:00
3:15 PM,93.6,58.8,31,29.91,10.0,South,17.3,24.2,N/A,,Clear,190,2013-08-20 20:15:00
3:35 PM,94.1,58.3,30,29.91,10.0,South,16.1,21.9,N/A,,Clear,190,2013-08-20 20:35:00
3:55 PM,94.3,56.8,28,29.91,10.0,South,17.3,23.0,N/A,,Clear,190,2013-08-20 20:55:00
4:15 PM,95.0,55.6,26,29.90,10.0,South,16.1,19.6,N/A,,Clear,190,2013-08-20 21:15:00
4:35 PM,95.4,56.7,27,29.90,10.0,South,10.4,20.7,N/A,,Clear,180,2013-08-20 21:35:00
4:55 PM,95.0,56.3,27,29.90,10.0,South,12.7,-,N/A,,Clear,190,2013-08-20 21:55:00
5:15 PM,95.0,55.4,26,29.90,10.0,SSW,12.7,19.6,N/A,,Clear,200,2013-08-20 22:15:00
5:35 PM,95.0,57.0,28,29.90,10.0,South,12.7,20.7,N/A,,Clear,190,2013-08-20 22:35:00
5:55 PM,94.3,56.5,28,29.90,10.0,South,9.2,-,N/A,,Clear,180,2013-08-20 22:55:00
6:15 PM,93.4,59.4,32,29.90,10.0,South,8.1,-,N/A,,Clear,170,2013-08-20 23:15:00
6:35 PM,92.5,58.6,32,29.90,10.0,South,10.4,-,N/A,,Clear,170,2013-08-20 23:35:00
6:55 PM,91.6,56.7,31,29.90,10.0,South,10.4,-,N/A,,Clear,170,2013-08-20 23:55:00
7:15 PM,90.1,58.1,34,29.89,10.0,South,10.4,-,N/A,,Clear,170,2013-08-21 00:15:00
7:35 PM,88.5,59.9,38,29.89,10.0,SSE,8.1,-,N/A,,Clear,160,2013-08-21 00:35:00
7:55 PM,86.5,61.2,42,29.89,10.0,SSE,9.2,-,N/A,,Clear,160,2013-08-21 00:55:00
8:15 PM,84.4,62.6,48,29.89,10.0,SSE,10.4,-,N/A,,Clear,160,2013-08-21 01:15:00
8:35 PM,83.5,61.5,47,29.89,10.0,SSE,11.5,-,N/A,,Clear,160,2013-08-21 01:35:00
8:55 PM,82.6,60.8,48,29.90,10.0,South,10.4,-,N/A,,Clear,170,2013-08-21 01:55:00
9:15 PM,82.2,61.0,48,29.90,10.0,South,12.7,-,N/A,,Clear,170,2013-08-21 02:15:00
9:35 PM,81.5,60.4,49,29.91,10.0,South,9.2,-,N/A,,Clear,170,2013-08-21 02:35:00
9:55 PM,81.0,59.5,48,29.92,10.0,South,8.1,-,N/A,,Clear,190,2013-08-21 02:55:00
10:15 PM,79.7,60.1,51,29.92,10.0,South,8.1,-,N/A,,Clear,190,2013-08-21 03:15:00
10:35 PM,78.3,60.6,54,29.93,10.0,South,5.8,-,N/A,,Clear,190,2013-08-21 03:35:00
10:55 PM,80.8,59.9,49,29.93,10.0,SSW,9.2,-,N/A,,Clear,200,2013-08-21 03:55:00
11:15 PM,81.7,60.3,48,29.93,10.0,South,12.7,17.3,N/A,,Clear,190,2013-08-21 04:15:00
11:35 PM,81.7,60.8,49,29.94,10.0,SSW,9.2,-,N/A,,Clear,200,2013-08-21 04:35:00
11:55 PM,81.5,61.2,50,29.94,10.0,SSW,12.7,18.4,N/A,,Clear,200,2013-08-21 04:55:00